GW3620 Weather Reports


Display with metric or nautical units.
time (UTC)temp
F
wind
direction
speed
MPH
gust
MPH
rain 1hr
in
rain 24hr
in
rain mn
in
humidity
%
barometer
mb
20260903214030 93 276 1.0 6.0 0.00 0.00 0.00 41 1013.1
20260903213032 92 77 2.0 6.0 0.00 0.00 0.00 41 1013.2
20260903212032 92 80 3.0 10.0 0.00 0.00 0.00 42 1013.2
20260903211032 92 291 2.0 7.0 0.00 0.00 0.00 43 1013.4
20260903210032 92 270 1.0 10.0 0.00 0.00 0.00 43 1013.7
20260903205032 91 277 1.0 7.0 0.00 0.00 0.00 44 1013.7
20260903204032 90 83 3.0 7.0 0.00 0.00 0.00 45 1013.9
20260903203030 91 65 3.0 9.0 0.00 0.00 0.00 45 1014.1
20260903202047 91 72 2.0 6.0 0.00 0.00 0.00 44 1014.1
20260903201049 91 339 1.0 7.0 0.00 0.00 0.00 45 1014.3
20260903200032 90 63 1.0 6.0 0.00 0.00 0.00 45 1014.4
20260903195032 90 84 3.0 7.0 0.00 0.00 0.00 46 1014.4
20260903194032 90 75 2.0 9.0 0.00 0.00 0.00 46 1014.8
20260903193032 89 357 2.0 6.0 0.00 0.00 0.00 47 1015.1
20260903192030 89 45 2.0 7.0 0.00 0.00 0.00 47 1015.1
20260903191032 89 4 2.0 7.0 0.00 0.00 0.00 47 1015.5
20260903190032 89 58 3.0 12.0 0.00 0.00 0.00 47 1015.6
20260903185107 89 277 3.0 9.0 0.00 0.00 0.00 49 1015.6
20260903184032 88 342 1.0 9.0 0.00 0.00 0.00 51 1015.9
20260903183032 87 65 3.0 9.0 0.00 0.00 0.00 51 1016.3
20260903182032 87 5 1.0 7.0 0.00 0.00 0.00 52 1016.3
20260903181030 86 40 3.0 9.0 0.00 0.00 0.00 53 1016.5
20260903180032 86 87 3.0 12.0 0.00 0.00 0.00 53 1016.7
20260903175032 86 38 3.0 7.0 0.00 0.00 0.00 55 1016.7
20260903174032 85 17 3.0 9.0 0.00 0.00 0.00 56 1016.9
20260903173049 84 33 2.0 7.0 0.00 0.00 0.00 58 1016.9
20260903172032 84 6 2.0 6.0 0.00 0.00 0.00 58 1016.9
20260903171049 84 11 2.0 9.0 0.00 0.00 0.00 58 1016.9
20260903170030 84 15 2.0 6.0 0.00 0.00 0.00 59 1016.8
20260903165032 83 44 0.0 3.0 0.00 0.00 0.00 60 1016.8
20260903164106 83 47 1.0 7.0 0.00 0.00 0.00 60 1016.8
20260903163032 83 0 0.0 0.0 0.00 0.00 0.00 60 1016.8
20260903162032 83 328 1.0 10.0 0.00 0.00 0.00 61 1016.8
20260903161107 83 278 0.0 3.0 0.00 0.00 0.00 62 1016.8
20260903160032 82 0 0.0 0.0 0.00 0.00 0.00 62 1016.9
20260903155030 82 61 1.0 4.0 0.00 0.00 0.00 63 1016.9
20260903154049 81 64 1.0 3.0 0.00 0.00 0.00 64 1016.9
20260903153032 81 45 2.0 6.0 0.00 0.00 0.00 64 1016.9
20260903152049 81 49 2.0 6.0 0.00 0.00 0.00 64 1016.9
20260903151032 80 64 4.0 7.0 0.00 0.00 0.00 65 1017.0
20260903150032 79 66 1.0 7.0 0.00 0.00 0.00 66 1017.1
20260903145030 79 32 0.0 1.0 0.00 0.00 0.00 66 1017.1
20260903144032 78 0 0.0 0.0 0.00 0.00 0.00 68 1017.1
20260903143049 78 0 0.0 0.0 0.00 0.00 0.00 70 1017.3
20260903142049 77 283 0.0 1.0 0.00 0.00 0.00 71 1017.3
20260903141030 77 280 0.0 3.0 0.00 0.00 0.00 71 1017.3
20260903140032 77 277 3.0 6.0 0.00 0.00 0.00 71 1017.0
20260903135032 78 278 2.0 9.0 0.00 0.00 0.00 71 1017.0
20260903134030 78 270 3.0 9.0 0.00 0.00 0.00 71 1016.8
20260903133032 78 276 4.0 7.0 0.00 0.00 0.00 71 1016.4
20260903132032 79 274 4.0 9.0 0.00 0.00 0.00 72 1016.4
20260903131032 79 87 3.0 7.0 0.00 0.00 0.00 70 1016.0
20260903130032 80 75 4.0 7.0 0.00 0.00 0.00 67 1015.8
20260903125032 80 78 4.0 6.0 0.00 0.00 0.00 66 1015.8
20260903124032 80 82 5.0 9.0 0.00 0.00 0.00 64 1015.5
20260903123030 81 68 1.0 6.0 0.00 0.00 0.00 63 1015.2
20260903122032 81 11 2.0 7.0 0.00 0.00 0.00 63 1015.2
20260903121032 80 35 2.0 6.0 0.00 0.00 0.00 64 1015.3
20260903120032 80 53 2.0 7.0 0.00 0.00 0.00 64 1015.1
20260903115049 80 31 1.0 6.0 0.00 0.00 0.00 66 1015.1
20260903114032 80 25 3.0 7.0 0.00 0.00 0.00 67 1015.0
20260903113032 80 82 0.0 4.0 0.00 0.00 0.00 67 1015.0
20260903112030 80 85 1.0 7.0 0.00 0.00 0.00 67 1015.0
20260903111032 80 0 0.0 0.0 0.00 0.00 0.00 67 1015.0
20260903105032 80 79 0.0 1.0 0.00 0.00 0.00 67 1015.0
20260903104032 80 79 0.0 3.0 0.00 0.00 0.00 66 1015.1
20260903103032 80 0 0.0 0.0 0.00 0.00 0.00 67 1015.1
20260903102047 80 79 0.0 1.0 0.00 0.00 0.00 67 1015.1
20260903101030 80 0 0.0 0.0 0.00 0.00 0.00 66 1015.0
20260903100032 80 0 0.0 0.0 0.00 0.00 0.00 66 1014.9
20260903095049 80 0 0.0 0.0 0.00 0.00 0.00 65 1014.9
20260903094032 81 0 0.0 0.0 0.00 0.00 0.00 65 1015.0
20260903093032 81 0 0.0 0.0 0.00 0.00 0.00 64 1015.3
20260903092032 81 0 0.0 0.0 0.00 0.00 0.00 64 1015.3
20260903091104 81 0 0.0 0.0 0.00 0.00 0.00 64 1015.1
20260903090030 81 0 0.0 0.0 0.00 0.00 0.00 64 1015.0
20260903085032 81 0 0.0 0.0 0.00 0.00 0.00 63 1015.0
20260903084107 82 0 0.0 0.0 0.00 0.00 0.00 62 1015.1
20260903083032 82 0 0.0 0.0 0.00 0.00 0.00 62 1015.2
20260903082106 82 79 0.0 3.0 0.00 0.00 0.00 62 1015.2
20260903081037 82 79 0.0 3.0 0.00 0.00 0.00 62 1015.3
20260903080030 82 0 0.0 0.0 0.00 0.00 0.00 63 1015.3
20260903075032 82 0 0.0 0.0 0.00 0.00 0.00 63 1015.3
20260903074032 82 0 0.0 0.0 0.00 0.00 0.00 63 1015.3
20260903073032 82 0 0.0 0.0 0.00 0.00 0.00 63 1015.2
20260903072049 82 0 0.0 0.0 0.00 0.00 0.00 62 1015.2
20260903071032 82 0 0.0 0.0 0.00 0.00 0.00 61 1015.4
20260903070032 83 0 0.0 0.0 0.00 0.00 0.00 61 1015.2
20260903065030 83 0 0.0 0.0 0.00 0.00 0.00 59 1015.2
20260903064032 83 79 0.0 3.0 0.00 0.00 0.00 58 1015.3
20260903063032 84 280 0.0 3.0 0.00 0.00 0.00 55 1015.3
20260903062032 84 278 0.0 3.0 0.00 0.00 0.00 54 1015.3
20260903061032 84 75 1.0 4.0 0.00 0.00 0.00 53 1015.2
20260903060032 84 69 2.0 6.0 0.00 0.00 0.00 52 1015.3
20260903055032 84 63 1.0 6.0 0.00 0.00 0.00 52 1015.3
20260903054030 84 72 1.0 6.0 0.00 0.00 0.00 51 1015.3
20260903053032 84 73 1.0 6.0 0.00 0.00 0.00 51 1015.4
20260903052049 84 25 2.0 7.0 0.00 0.00 0.00 51 1015.4
20260903051049 85 33 2.0 7.0 0.00 0.00 0.00 51 1015.5
20260903050049 85 5 2.0 6.0 0.00 0.00 0.00 50 1015.5
20260903045032 85 48 2.0 7.0 0.00 0.00 0.00 49 1015.5
20260903044032 86 16 2.0 7.0 0.00 0.00 0.00 48 1015.2
20260903043030 86 10 2.0 9.0 0.00 0.00 0.00 48 1014.7
20260903042106 86 9 2.0 7.0 0.00 0.00 0.00 48 1014.7
20260903041032 86 4 1.0 4.0 0.00 0.00 0.00 48 1014.9
20260903040032 86 2 1.0 6.0 0.00 0.00 0.00 47 1014.8
20260903035032 86 323 2.0 7.0 0.00 0.00 0.00 47 1014.8
20260903034049 86 348 1.0 6.0 0.00 0.00 0.00 46 1014.8
20260903033047 86 15 0.0 3.0 0.00 0.00 0.00 45 1014.5
20260903032047 86 5 1.0 4.0 0.00 0.00 0.00 45 1014.5
20260903031049 87 330 2.0 7.0 0.00 0.00 0.00 46 1014.6
20260903030032 87 0 1.0 4.0 0.00 0.00 0.00 46 1014.5
20260903025032 87 4 0.0 3.0 0.00 0.00 0.00 46 1014.5
20260903024032 87 10 0.0 3.0 0.00 0.00 0.00 46 1014.3
20260903023032 87 344 0.0 3.0 0.00 0.00 0.00 46 1014.1
20260903022030 87 336 2.0 7.0 0.00 0.00 0.00 46 1014.1
20260903021032 88 341 3.0 9.0 0.00 0.00 0.00 46 1014.6
20260903015032 89 336 1.0 4.0 0.00 0.00 0.00 45 1014.9
20260903014032 89 340 1.0 6.0 0.00 0.00 0.00 44 1014.3
20260903013032 90 352 1.0 3.0 0.00 0.00 0.00 42 1014.3
20260903012032 90 0 0.0 0.0 0.00 0.00 0.00 41 1014.3
20260903011030 91 270 2.0 7.0 0.00 0.00 0.00 40 1014.5
20260903010049 91 270 3.0 10.0 0.00 0.00 0.00 40 1014.3
20260903005032 92 88 5.0 10.0 0.00 0.00 0.00 40 1014.3
20260903004049 92 89 6.0 10.0 0.00 0.00 0.00 40 1014.3
20260903003032 92 81 4.0 13.0 0.00 0.00 0.00 39 1014.6
20260903002047 91 76 0.0 6.0 0.00 0.00 0.00 39 1014.6
20260903001032 91 20 1.0 7.0 0.00 0.00 0.00 39 1014.5
20260902235049 91 16 0.0 3.0 0.00 0.00 0.00 39 1014.6
20260902233049 91 55 1.0 6.0 0.00 0.00 0.00 41 1014.5
20260902232107 91 88 0.0 4.0 0.00 0.00 0.00 41 1014.5
20260902231032 91 284 0.0 1.0 0.00 0.00 0.00 40 1014.9
20260902230032 92 290 2.0 6.0 0.00 0.00 0.00 40 1014.8
20260902225030 92 297 0.0 6.0 0.00 0.00 0.00 40 1014.8
20260902224049 92 86 2.0 6.0 0.00 0.00 0.00 40 1015.0
20260902223032 92 87 2.0 7.0 0.00 0.00 0.00 40 1015.1
20260902221032 92 86 4.0 7.0 0.00 0.00 0.00 39 1015.2
20260902220032 92 88 4.0 12.0 0.00 0.00 0.00 40 1015.3
20260902215047 93 270 4.0 10.0 0.00 0.00 0.00 39 1015.3